Weather reports worldwide

Advertisment
Mannheim, Germany (10729): temperature & dewpoint: 20.09.2018 05:00:00 - 26.09.2018 05:00:00 (CEST)Mannheim, Germany (10729): temperature 5cm & temperature -5cm: 20.09.2018 05:00:00 - 26.09.2018 05:00:00 (CEST)Mannheim, Germany (10729): temperature -20cm & temperature -100cm: 20.09.2018 05:00:00 - 26.09.2018 05:00:00 (CEST)Mannheim, Germany (10729): wind speed & gusts: 20.09.2018 05:00:00 - 26.09.2018 05:00:00 (CEST)Mannheim, Germany (10729): wind direction: 20.09.2018 05:00:00 - 26.09.2018 05:00:00 (CEST)Mannheim, Germany (10729): reduced air pressure: 20.09.2018 05:00:00 - 26.09.2018 05:00:00 (CEST)Mannheim, Germany (10729): visibility: 20.09.2018 05:00:00 - 26.09.2018 05:00:00 (CEST)Mannheim, Germany (10729): sunshine duration: 20.09.2018 05:00:00 - 26.09.2018 05:00:00 (CEST)Mannheim, Germany (10729): precipitation: 20.09.2018 05:00:00 - 26.09.2018 05:00:00 (CEST)
Date & Time tt [°C] td [°C] tt 5cm [°C] tt -5cm [°C] tt -20cm [°C] tt -100cm [°C] ff [km/h] ff [kn] fx [km/h] fx [kn] dd ppp [hPa] vv [km] sd [min] rr [mm]
26.09.2018 05:00:00 4,7 1,0 0,2 8,5 15,4 19,1 3 2 11 6 N 1036,0 70 0 0,0
26.09.2018 04:00:00 6,4 1,5 0,4 8,9 15,7 19,1 6 3 8 5 NNE 1036,1 70 0 0,0
26.09.2018 03:00:00 5,0 1,8 0,7 9,4 16,0 19,2 3 1 7 4 E 1036,5 67 0 0,0
26.09.2018 02:00:00 5,7 1,9 1,4 10,1 16,3 19,2 4 2 10 5 NNE 1037,2 70 0 0,0
26.09.2018 01:00:00 5,1 2,6 0,7 10,7 16,5 19,2 2 1 7 4 NE 1037,5 60 0 0,0
26.09.2018 00:00:00 7,8 3,0 2,7 11,6 16,8 19,2 3 2 7 4 NE 1037,8 60 0 0,0
25.09.2018 23:00:00 8,9 3,2 4,1 12,4 17,0 19,2 4 2 9 5 NNE 1038,3 67 0 0,0
25.09.2018 22:00:00 9,8 3,2 6,5 13,4 17,2 19,3 6 3 9 5 NNE 1038,3 64 0 0,0
25.09.2018 21:00:00 10,9 2,8 6,2 14,7 17,4 19,3 5 3 9 5 NE 1038,2 70 0 0,0
25.09.2018 20:00:00 12,4 2,2 8,6 16,2 17,4 19,3 6 3 17 9 E 1037,6 70 5 0,0
25.09.2018 19:00:00 14,4 2,1 13,7 18,1 17,3 19,3 12 6 22 12 E 1037,0 70 60 0,0
25.09.2018 18:00:00 15,4 1,4 17,7 19,9 17,0 19,4 14 7 27 14 E 1037,0 58 60 0,0
25.09.2018 17:00:00 15,9 0,8 19,2 21,2 16,6 19,4 12 6 23 12 NE 1037,2 38 59 0,0
25.09.2018 16:00:00 16,1 0,9 21,2 21,7 16,1 19,4 11 6 24 13 NNE 1037,9 32 60 0,0
25.09.2018 15:00:00 16,2 0,9 21,5 21,3 15,6 19,4 14 8 27 15 NNE 1038,2 33 56 0,0
25.09.2018 14:00:00 15,7 1,3 22,0 19,9 15,2 19,4 11 6 19 11 NNE 1038,4 25 60 0,0
25.09.2018 13:00:00 13,9 1,6 17,1 17,9 14,8 19,4 10 5 19 10 NE 1038,8 70 44 0,0
25.09.2018 12:00:00 14,0 2,2 19,0 16,1 14,6 19,5 4 2 16 9 SE 1039,2 27 58 0,0
25.09.2018 11:00:00 12,6 3,9 15,9 13,5 14,5 19,5 6 3 14 8 NE 1039,2 42 60 0,0
25.09.2018 10:00:00 10,4 5,0 11,5 11,0 14,6 19,5 8 4 15 8 NE 1039,0 48 60 0,0
25.09.2018 09:00:00 8,3 4,7 7,4 8,8 14,8 19,5 5 3 10 5 N 1038,7 38 60 0,0
25.09.2018 08:00:00 4,9 3,9 2,7 7,7 15,0 19,5 3 2 9 5 N 1038,5 20 11 0,0
25.09.2018 07:00:00 4,0 3,4 0,1 8,0 15,3 19,5 6 3 7 4 NNW 1038,5 27 0 0,0
25.09.2018 06:00:00 4,1 3,8 0,3 8,4 15,5 19,5 0 0 5 3 N 1038,0 17 0 0,0
25.09.2018 05:00:00 4,3 3,8 1,2 9,0 15,8 19,5 3 2 6 3 N 1037,8 25 0 0,0
25.09.2018 04:00:00 4,9 4,0 1,8 9,5 16,0 19,6 4 2 9 5 N 1037,5 25 0 0,0
25.09.2018 03:00:00 6,2 4,7 2,8 10,1 16,2 19,6 2 1 11 6 NNE 1037,5 46 0 0,0
25.09.2018 02:00:00 8,0 5,2 5,6 10,6 16,4 19,6 8 5 13 7 NNW 1037,2 63 0 0,0
25.09.2018 01:00:00 8,3 5,1 5,4 11,2 16,6 19,6 8 4 11 6 N 1037,0 70 0 0,0
25.09.2018 00:00:00 7,7 5,5 5,0 11,8 16,8 19,6 3 1 10 6 NNW 1036,7 64 0 0,0
24.09.2018 23:00:00 9,9 5,0 8,0 12,3 17,0 19,6 8 4 16 9 N 1036,2 70 0 0,0
24.09.2018 22:00:00 11,3 5,0 8,4 13,2 17,1 19,7 6 3 13 7 NNW 1035,8 70 0 0,0
24.09.2018 21:00:00 12,4 5,2 11,3 13,6 17,3 19,7 8 5 18 10 NW 1035,0 70 0 0,0
24.09.2018 20:00:00 13,3 4,5 11,6 14,2 17,3 19,7 11 6 20 11 NW 1034,0 70 13 0,0
24.09.2018 19:00:00 14,3 3,8 13,2 15,5 17,3 19,7 10 6 28 15 NNW 1033,4 70 52 0,0
24.09.2018 18:00:00 15,1 3,7 16,3 16,4 17,3 19,7 16 8 27 15 NNW 1033,2 56 35 0,0
24.09.2018 17:00:00 14,8 3,5 15,0 17,2 17,1 19,7 12 6 22 12 NW 1033,1 70 0 0,0
24.09.2018 16:00:00 14,9 4,0 16,6 17,4 16,9 19,7 11 6 20 11 NNW 1033,4 65 1 0,0
24.09.2018 15:00:00 14,3 3,0 15,9 18,8 16,7 19,8 16 9 40 21 NW 1033,6 50 37 0,0
24.09.2018 14:00:00 14,5 4,0 18,2 17,4 16,4 19,8 17 9 30 16 NNW 1033,8 55 43 0,0
24.09.2018 13:00:00 13,5 5,0 16,0 15,9 16,3 19,8 14 7 27 15 NW 1034,1 51 32 0,0
24.09.2018 12:00:00 13,2 4,8 16,5 15,1 16,2 19,8 13 7 22 12 N 1033,9 44 36 0,0
24.09.2018 11:00:00 11,7 5,6 13,8 13,7 16,2 19,8 13 7 23 13 NW 1034,0 50 29 0,0
24.09.2018 10:00:00 11,0 5,6 12,6 12,5 16,3 19,8 11 6 18 10 NW 1033,2 52 56 0,0
24.09.2018 09:00:00 10,0 5,8 9,4 11,0 16,5 19,8 9 5 17 9 WNW 1032,4 40 54 0,0
24.09.2018 08:00:00 8,5 5,7 6,6 10,0 16,8 19,8 6 3 16 9 WNW 1031,5 26 6 0,0
24.09.2018 07:00:00 8,3 5,8 6,2 10,3 17,0 19,8 9 5 14 7 WNW 1030,4 36 0 0,0
24.09.2018 06:00:00 8,6 6,0 6,6 10,7 17,2 19,8 8 4 14 8 WNW 1029,5 43 0 0,0
24.09.2018 05:00:00 8,5 6,2 6,7 11,2 17,5 19,8 7 4 11 6 NW 1028,7 45 0 0,0
24.09.2018 04:00:00 8,7 6,2 5,3 11,8 17,7 19,9 4 2 13 7 NNW 1027,8 69 0 0,0
24.09.2018 03:00:00 10,1 6,5 9,2 12,5 17,9 19,9 8 5 21 11 NW 1026,9 65 0 0,0
24.09.2018 02:00:00 10,1 6,2 9,8 12,6 18,2 19,9 10 6 21 11 NW 1025,6 70 0 0,0
24.09.2018 01:00:00 10,1 5,6 9,7 12,8 18,4 19,9 16 8 32 17 NW 1023,9 70 0 0,0
24.09.2018 00:00:00 10,4 6,1 9,4 13,4 18,7 19,9 17 9 31 17 NNW 1022,0 70 0 0,0
23.09.2018 23:00:00 11,6 6,8 10,7 14,2 18,9 19,9 19 10 34 19 NNW 1020,0 70 0 0,0
23.09.2018 22:00:00 12,0 8,3 11,1 14,8 19,2 19,9 18 10 43 23 NW 1017,8 70 0 0,0
23.09.2018 21:00:00 12,8 8,8 12,3 15,7 19,4 19,9 29 16 48 26 NW 1015,3 70 0 0,0
23.09.2018 20:00:00 13,2 10,5 12,9 16,8 19,5 19,9 22 12 42 23 NW 1010,9 70 0 0,0
23.09.2018 19:00:00 14,5 11,6 13,7 18,3 19,5 20,0 24 13 42 23 NNW 1008,5 50 0 0,3
23.09.2018 18:00:00 17,0 15,7 16,7 19,6 19,4 20,0 18 10 89 48 NW 1006,4 9 0 7,2
23.09.2018 17:00:00 22,9 16,4 22,7 21,5 19,2 20,0 39 21 63 34 SSW 1004,3 70 0 0,0
23.09.2018 16:00:00 23,0 16,1 23,5 22,6 19,0 20,0 39 21 63 34 SW 1005,5 48 29 0,0
23.09.2018 15:00:00 23,5 16,1 26,1 21,7 18,8 20,0 37 20 70 38 SW 1007,0 24 41 0,0
23.09.2018 14:00:00 22,1 16,3 22,8 19,3 18,7 20,0 32 18 52 28 SW 1009,1 57 1 0,0
23.09.2018 13:00:00 19,7 16,4 20,0 19,4 18,5 20,0 22 12 39 21 S 1010,5 70 0 0,0
23.09.2018 12:00:00 18,9 16,2 19,4 19,0 18,4 20,0 23 12 45 25 SSW 1011,6 70 5 0,0
23.09.2018 11:00:00 19,6 15,7 20,6 18,2 18,4 20,0 23 13 43 23 SSW 1011,9 46 19 0,0
23.09.2018 10:00:00 15,6 14,2 16,0 16,1 18,4 20,0 14 7 24 13 S 1012,6 38 0 0,0
23.09.2018 09:00:00 13,9 12,9 13,9 15,0 18,6 20,0 13 7 21 11 S 1012,9 40 0 0,0
23.09.2018 08:00:00 13,0 11,9 12,8 14,7 18,7 20,0 15 8 24 13 S 1013,5 48 0 0,1
23.09.2018 07:00:00 12,7 11,4 12,3 14,6 18,8 20,0 14 8 24 13 S 1014,0 7 0 0,0
23.09.2018 06:00:00 11,9 11,4 11,9 14,8 19,0 20,0 15 8 27 14 SSE 1014,9 4,0 0 2,3
23.09.2018 05:00:00 11,7 11,3 11,8 15,4 19,1 20,1 13 7 20 11 SSE 1016,4 1,3 0 2,9
23.09.2018 04:00:00 11,8 11,4 11,9 15,7 19,2 20,1 10 5 16 9 SE 1017,6 1,8 0 1,9
23.09.2018 03:00:00 12,3 10,9 11,9 15,8 19,3 20,1 11 6 22 12 S 1018,7 3,7 0 0,1
23.09.2018 02:00:00 12,5 10,7 12,0 16,0 19,4 20,1 7 4 10 5 SSE 1019,2 46 0 0,0
23.09.2018 01:00:00 12,3 10,6 11,9 16,2 19,5 20,1 5 3 11 6 SW 1019,8 20 0 0,1
23.09.2018 00:00:00 12,5 9,9 11,8 16,4 19,7 20,1 5 3 8 4 SE 1020,1 52 0 0,0
22.09.2018 23:00:00 12,9 8,9 11,8 16,7 19,8 20,1 2 1 9 5 E 1020,4 50 0 0,1
22.09.2018 22:00:00 13,9 7,2 12,5 17,1 19,9 20,1 8 4 12 7 N 1020,5 66 0 0,0
22.09.2018 21:00:00 15,1 7,3 14,3 17,6 20,0 20,1 4 2 26 14 NNE 1020,4 70 0 0,0
22.09.2018 20:00:00 16,5 6,4 15,3 18,5 20,0 20,1 10 6 23 12 WSW 1020,6 44 0 0,0
22.09.2018 19:00:00 17,5 5,0 17,0 19,5 20,0 20,1 13 7 24 13 SW 1020,2 70 0 0,0
22.09.2018 18:00:00 17,8 4,6 18,1 20,6 19,9 20,1 13 7 32 17 WSW 1020,4 70 0 0,0
22.09.2018 17:00:00 18,1 3,7 19,4 22,3 19,7 20,1 19 10 35 19 WSW 1020,7 70 4 0,0
22.09.2018 16:00:00 18,4 4,9 21,6 23,1 19,5 20,1 20 11 36 19 SW 1021,4 57 54 0,0
22.09.2018 15:00:00 18,2 5,5 23,2 21,9 19,3 20,1 23 12 33 18 SSW 1021,5 38 47 0,0
22.09.2018 14:00:00 16,9 6,1 19,8 21,1 19,1 20,1 17 9 31 17 SSW 1022,3 47 25 0,0
22.09.2018 13:00:00 17,0 7,8 21,6 20,4 19,0 20,1 17 9 29 15 SSW 1023,0 40 59 0,0
22.09.2018 12:00:00 15,2 8,1 18,0 18,2 18,9 20,1 14 7 22 12 S 1023,5 33 60 0,0
22.09.2018 11:00:00 14,0 8,0 16,3 16,5 19,0 20,1 13 7 20 11 S 1024,3 43 53 0,0
22.09.2018 10:00:00 12,8 8,2 13,8 15,0 19,1 20,1 11 6 18 10 S 1023,8 50 13 0,0
22.09.2018 09:00:00 11,0 8,1 10,8 13,9 19,2 20,1 9 5 15 8 SSE 1024,2 57 0 0,0
22.09.2018 08:00:00 10,2 7,6 9,4 13,5 19,4 20,1 9 5 14 8 S 1023,7 49 0 0,0
22.09.2018 07:00:00 10,1 7,5 9,0 13,6 19,6 20,1 8 5 15 8 S 1023,1 42 0 0,0
22.09.2018 06:00:00 9,8 7,8 8,3 13,8 19,8 20,1 10 5 16 9 SSE 1022,9 43 0 0,0
22.09.2018 05:00:00 10,2 8,0 9,0 14,0 20,0 20,1 9 5 14 8 S 1022,6 46 0 0,0
22.09.2018 04:00:00 12,0 6,9 9,9 14,4 20,2 20,1 10 6 17 9 SW 1022,3 67 0 0,0
22.09.2018 03:00:00 12,3 7,5 10,0 14,9 20,4 20,1 11 6 17 9 SW 1021,9 70 0 0,0
22.09.2018 02:00:00 12,7 8,6 10,2 15,5 20,6 20,1 9 5 19 10 SSW 1021,5 51 0 0,0
22.09.2018 01:00:00 13,5 8,5 11,7 16,2 20,8 20,1 11 6 17 9 SSW 1021,0 70 0 0,0
22.09.2018 00:00:00 13,4 10,0 12,2 16,6 21,0 20,1 9 5 17 9 SSE 1020,4 51 0 0,0
21.09.2018 23:00:00 14,0 9,8 12,8 17,0 21,2 20,1 11 6 22 12 SSW 1019,5 60 0 0,0
21.09.2018 22:00:00 14,0 11,3 13,1 17,4 21,4 20,1 13 7 23 12 SSW 1018,5 41 0 0,0
21.09.2018 21:00:00 15,0 10,4 13,9 17,8 21,6 20,1 14 8 23 12 SSW 1017,4 53 0 0,0
21.09.2018 20:00:00 15,3 10,5 14,3 18,4 21,8 20,1 18 10 31 17 WSW 1016,2 54 0 0,0
21.09.2018 19:00:00 15,1 11,0 14,2 19,2 22,0 20,1 18 10 29 16 W 1015,0 60 2 0,0
21.09.2018 18:00:00 14,8 10,5 13,4 20,1 22,1 20,1 18 10 35 19 W 1014,0 55 0 0,9
21.09.2018 17:00:00 15,1 10,7 13,7 21,9 22,1 20,0 29 15 51 28 WNW 1013,0 40 0 1,8
21.09.2018 16:00:00 22,1 13,8 20,1 24,0 22,0 20,0 17 9 41 22 WSW 1009,7 49 0 0,1
21.09.2018 15:00:00 24,1 11,8 24,4 24,3 21,9 20,0 21 11 36 19 SSW 1009,7 57 0 0,0
21.09.2018 14:00:00 24,3 12,4 24,9 24,8 21,8 20,0 23 12 37 20 SSW 1009,6 44 0 0,0
21.09.2018 13:00:00 24,9 12,2 26,8 25,2 21,6 20,0 24 13 45 24 SW 1009,7 38 11 0,0
21.09.2018 12:00:00 24,9 14,0 26,4 24,2 21,5 20,0 26 14 45 24 SW 1010,0 31 10 0,0
21.09.2018 11:00:00 23,6 14,4 26,9 22,3 21,5 20,0 17 9 28 15 S 1010,2 31 14 0,0
21.09.2018 10:00:00 21,1 13,7 21,9 21,2 21,6 20,0 22 12 36 19 S 1010,2 30 6 0,0
21.09.2018 09:00:00 20,6 13,1 21,6 20,4 21,7 20,0 20 11 29 16 S 1010,1 21 50 0,0
21.09.2018 08:00:00 19,9 12,2 19,0 19,4 21,8 20,0 14 8 22 12 S 1010,2 29 0 0,0
21.09.2018 07:00:00 19,4 12,2 18,0 19,3 21,9 20,0 16 8 24 13 S 1010,4 28 0 0,0
21.09.2018 06:00:00 19,4 12,8 17,7 19,4 22,1 20,0 11 6 18 10 S 1011,1 27 0 0,0
21.09.2018 05:00:00 18,7 12,3 17,2 19,6 22,2 20,0 10 5 22 12 SSE 1011,6 30 0 0,0
21.09.2018 04:00:00 18,7 12,0 17,1 19,7 22,4 20,0 10 6 19 10 SSE 1012,1 33 0 0,0
21.09.2018 03:00:00 18,8 12,3 17,3 19,7 22,7 20,0 12 7 18 10 S 1012,7 31 0 0,0
21.09.2018 02:00:00 17,7 12,9 12,6 19,8 22,9 20,0 7 4 12 7 SSW 1012,8 23 0 0,0
21.09.2018 01:00:00 15,7 12,1 12,1 20,5 23,1 20,0 3 1 8 4 W 1013,4 29 0 0,0
21.09.2018 00:00:00 17,9 12,9 13,3 21,2 23,3 20,0 3 2 7 4 SE 1013,8 28 0 0,0
20.09.2018 23:00:00 19,2 13,1 14,6 22,0 23,6 20,0 5 3 7 4 SSE 1014,2 32 0 0,0
20.09.2018 22:00:00 20,1 13,4 14,6 23,1 23,7 20,0 3 2 8 4 SE 1014,8 30 0 0,0
20.09.2018 21:00:00 21,2 13,0 15,8 24,5 23,8 20,0 4 2 6 3 ESE 1015,1 36 0 0,0
20.09.2018 20:00:00 23,4 12,7 18,3 26,5 23,8 20,0 4 2 11 6 SSW 1015,1 41 15 0,0
20.09.2018 19:00:00 27,7 13,2 26,7 28,6 23,6 20,0 10 5 21 12 SSW 1015,1 51 60 0,0
20.09.2018 18:00:00 29,0 12,5 31,0 30,2 23,4 20,0 13 7 22 12 SW 1015,6 45 60 0,0
20.09.2018 17:00:00 28,9 12,5 33,0 31,2 23,0 20,0 11 6 29 16 SSW 1016,1 42 60 0,0
20.09.2018 16:00:00 28,8 12,9 33,9 31,6 22,6 20,0 14 7 26 14 SW 1016,7 25 60 0,0
20.09.2018 15:00:00 28,3 13,1 34,4 31,2 22,2 20,0 13 7 27 15 SSW 1017,3 23 60 0,0
20.09.2018 14:00:00 27,7 11,8 33,8 30,3 21,8 20,0 18 10 29 16 S 1018,2 23 60 0,0
20.09.2018 13:00:00 26,2 13,4 32,9 28,6 21,5 19,9 11 6 21 11 WSW 1018,9 25 60 0,0
20.09.2018 12:00:00 25,6 14,0 31,3 26,4 21,3 19,9 10 5 18 10 SW 1019,6 22 60 0,0
20.09.2018 11:00:00 23,6 14,8 27,5 23,9 21,3 19,9 6 4 15 8 S 1019,9 22 60 0,0
20.09.2018 10:00:00 21,2 14,8 23,7 21,5 21,3 19,9 8 4 14 8 S 1020,1 24 60 0,0
20.09.2018 09:00:00 19,0 13,7 19,9 19,3 21,5 19,9 8 5 11 6 S 1020,0 22 34 0,0
20.09.2018 08:00:00 17,0 13,2 15,7 18,5 21,6 19,9 5 3 9 5 SSE 1019,9 17 0 0,0
20.09.2018 07:00:00 16,0 13,2 12,8 18,7 21,8 19,9 3 1 9 5 S 1019,9 21 0 0,0
20.09.2018 06:00:00 16,7 13,2 12,8 18,9 22,0 19,9 4 2 6 4 S 1019,6 22 0 0,0
20.09.2018 05:00:00 14,8 11,9 12,3 19,3 22,2 19,9 4 2 6 3 S 1019,6 21 0 0,0

tt = temperature
td = dewpoint
tt 5cm = temperature 5cm
tt -5cm = temperature -5cm
tt -20cm = temperature -20cm
tt -100cm = temperature -100cm
ff = wind speed
fx = gusts
dd = wind direction
ppp = reduced air pressure
vv = visibility
sd = sunshine duration
rr = precipitation

Next stations